Wind_Speed
17 18 20 22 24 26 29 32 33 29 26 25 25 30 33 34 34 33 32 32 32 32 31 31 31 31 31 31 31 30 29 29 28 27 26 26 26 26 26 27 28 30
21 23 25 26 27 29 31 33 29 23 22 25 29 33 35 35 33 32 32 32 32 32 31 31 31 31 31 30 30 29 28 27 26 26 26 27 26 25 26 27 27 29
26 27 28 29 29 30 33 31 24 21 25 29 33 37 37 36 34 32 32 32 32 31 30 30 30 30 30 30 30 28 27 26 24 23 24 26 26 25 26 26 26 27
29 31 33 32 31 32 34 30 24 25 30 34 38 41 38 36 34 33 32 32 31 30 30 29 29 29 28 29 30 29 28 27 23 21 22 25 25 25 25 25 25 25
36 37 36 34 34 35 33 27 24 28 34 39 41 38 33 31 32 32 30 31 30 29 29 29 28 27 27 28 30 30 29 27 24 22 22 23 25 26 27 26 24 24
38 35 33 33 34 32 27 25 28 33 38 39 36 31 27 28 30 30 28 28 29 29 28 28 28 28 28 28 29 30 28 26 24 22 22 23 24 26 27 25 24 23
33 33 34 34 33 30 29 30 31 31 32 31 27 25 25 27 29 29 27 26 27 28 28 27 28 28 27 27 27 27 26 26 24 23 23 23 24 25 26 25 23 22
33 34 33 31 29 28 28 28 25 26 28 28 27 27 27 28 28 27 26 25 24 24 25 26 26 25 25 26 26 26 25 25 25 24 24 24 23 25 26 25 23 22
31 29 28 26 25 24 25 25 25 27 29 28 29 30 30 29 28 26 25 24 22 21 21 23 24 24 24 24 25 25 24 24 24 24 25 25 24 24 25 25 24 22
25 24 26 27 27 27 29 30 29 28 28 29 30 31 30 28 26 25 23 20 18 18 19 20 21 21 22 22 23 23 23 23 24 24 24 25 25 25 24 25 25 24
25 25 27 29 29 29 30 31 31 30 29 30 30 29 27 24 22 22 19 17 18 20 21 21 20 19 19 20 21 21 22 22 23 24 24 24 24 25 24 24 26 27
27 26 27 28 28 28 28 28 29 28 28 27 26 24 22 21 21 21 21 22 24 25 24 24 22 20 19 19 20 21 22 22 23 24 24 25 24 24 23 23 24 27
26 27 27 26 26 26 26 25 24 24 24 24 23 22 21 22 23 24 26 29 29 28 26 25 24 22 21 20 20 20 22 23 24 25 25 25 25 23 22 21 23 25
26 27 27 25 25 25 24 24 24 24 24 24 23 23 24 25 26 27 28 29 28 27 26 26 24 23 24 23 22 21 21 23 24 25 25 25 26 25 22 21 22 24
26 26 26 25 25 25 24 25 25 25 26 26 25 25 26 27 28 28 28 27 27 25 25 25 25 24 24 23 22 22 21 23 24 25 25 25 26 26 24 23 22 22
26 26 26 25 25 24 24 24 25 25 26 26 26 26 27 29 30 29 27 26 26 25 25 26 26 25 25 25 23 22 22 24 25 25 25 25 26 26 26 25 24 24
26 26 25 25 25 24 24 24 25 25 25 25 26 27 28 29 29 28 27 25 24 25 26 26 26 26 26 26 25 24 24 25 26 26 25 25 26 26 26 26 26 25
25 25 25 25 25 25 24 25 25 25 25 25 25 27 28 28 27 26 26 24 23 23 24 25 26 26 25 25 26 25 25 26 27 26 25 25 26 27 27 27 26 26
25 25 25 26 26 25 25 25 25 26 26 25 26 27 26 25 25 25 25 25 25 24 24 24 24 24 23 24 25 25 25 25 25 26 25 26 27 27 27 27 26 25
26 25 26 26 26 25 25 26 26 26 26 25 25 25 24 24 25 25 25 26 27 25 23 24 24 23 23 23 23 24 24 24 24 25 27 27 28 28 27 26 25 24
26 26 26 26 26 26 26 26 25 25 25 25 24 24 25 25 25 25 25 26 26 24 22 23 23 22 21 21 22 21 21 20 20 22 25 27 28 28 27 26 24 23
27 27 27 26 26 27 26 25 24 24 25 24 24 24 24 24 24 24 24 24 25 23 21 22 22 20 17 16 16 16 17 16 17 18 20 21 23 25 26 26 24 23
27 27 26 27 27 27 26 25 24 24 24 23 23 24 24 26 27 27 26 25 25 24 20 21 21 19 16 16 15 14 14 15 16 18 18 19 21 22 24 25 25 25
28 27 27 28 28 27 26 26 25 24 25 25 25 25 27 29 30 29 28 26 24 23 21 21 21 20 19 17 16 14 14 16 18 19 20 20 21 22 24 26 27 27
28 27 27 28 28 28 28 27 26 27 29 30 29 27 28 30 28 26 26 23 20 21 21 19 19 20 18 14 11 10 10 11 13 16 18 20 21 22 23 25 27 27
28 28 29 29 29 30 30 29 30 32 32 30 29 27 27 27 24 22 22 18 15 19 21 18 15 15 12 8 7 7 7 7 8 10 13 15 17 18 19 21 24 26
Wind_Direction
308 311 311 313 314 314 316 314 308 300 295 297 301 304 304 299 293 287 282 282 284 282 281 281 279 277 275 273 271 269 269 270 272 272 265 255 248 244 245 245 245 245
310 310 311 311 312 313 314 312 304 297 298 302 306 306 303 299 293 285 280 279 280 280 279 280 278 275 273 271 268 266 266 268 272 274 268 257 250 245 245 247 245 244
308 309 311 310 310 311 313 310 298 294 302 305 306 305 301 297 292 285 279 277 278 278 278 279 279 276 273 270 267 262 263 265 269 273 269 258 249 244 245 247 247 245
311 311 310 308 308 309 309 303 293 296 304 305 304 301 297 293 291 286 278 274 275 276 278 279 278 277 274 270 264 260 262 262 264 269 266 258 252 247 247 248 246 246
311 310 309 308 308 307 303 296 296 303 305 304 301 296 292 292 295 294 282 274 274 276 278 278 276 274 272 267 263 261 261 259 259 262 260 258 256 252 251 249 245 245
311 311 311 311 309 306 303 303 306 307 305 301 296 292 294 299 303 304 294 282 277 277 278 277 274 271 267 265 263 260 258 256 256 257 255 256 256 253 250 247 244 244
315 316 314 310 305 302 305 307 307 306 305 302 299 301 305 306 305 305 303 295 285 279 278 278 276 272 267 263 259 256 255 254 255 254 252 253 254 250 247 244 243 244
316 315 312 308 304 303 306 308 307 308 309 307 307 307 308 307 303 303 306 305 296 286 281 280 276 272 267 260 255 253 252 250 251 250 249 249 248 246 245 243 240 241
312 312 314 315 317 316 314 313 311 310 309 305 302 302 304 303 300 301 306 307 305 299 291 286 280 273 268 260 254 251 250 250 250 247 246 246 244 244 245 243 238 237
314 320 323 324 324 319 315 313 311 309 307 303 300 301 301 299 299 302 305 307 312 314 310 304 294 283 274 264 257 255 256 256 253 248 247 247 245 246 246 244 238 235
318 323 323 321 319 315 311 310 309 308 307 305 304 302 299 300 304 305 307 315 320 318 316 313 308 300 290 278 269 267 267 264 259 255 252 249 248 248 246 243 239 236
315 317 317 315 312 309 306 304 303 305 307 308 307 305 305 309 309 308 311 315 312 309 307 305 303 301 296 289 281 276 273 268 264 261 258 254 252 250 247 244 239 237
314 315 314 312 309 308 306 306 307 308 310 310 309 308 309 311 309 307 307 305 302 301 299 297 295 292 290 288 283 276 271 267 264 262 259 255 252 249 246 244 240 238
315 314 313 311 310 310 310 311 312 311 311 310 308 308 308 308 308 306 304 300 297 295 293 292 290 287 284 282 279 275 268 264 263 261 257 252 249 246 243 242 241 237
315 314 313 312 311 311 311 311 311 311 311 310 308 307 307 306 305 304 300 297 294 291 289 288 286 281 279 277 275 273 268 263 261 258 253 247 244 242 240 240 241 238
317 315 314 313 312 312 312 311 311 311 311 309 307 305 304 304 304 302 298 294 290 288 287 286 282 277 274 273 270 266 262 259 257 254 249 244 241 239 236 237 238 239
318 316 315 315 314 313 312 312 311 310 308 306 305 303 303 304 303 301 297 292 287 284 283 281 278 273 270 269 268 262 257 253 251 249 247 245 242 238 235 236 236 236
319 318 317 317 315 314 312 312 311 309 307 304 303 304 305 303 300 298 296 292 288 283 279 277 275 271 268 266 264 261 257 252 248 246 245 243 241 239 237 237 235 234
321 319 318 317 316 314 312 310 309 307 305 302 301 302 301 297 295 294 291 289 289 287 283 280 277 273 268 263 261 259 256 253 248 243 241 240 239 237 236 236 235 233
320 318 316 315 314 313 311 310 307 302 301 300 299 299 298 296 294 293 290 290 293 291 287 284 283 281 273 262 258 258 256 254 250 244 240 238 237 235 235 234 232 231
320 318 316 315 314 312 310 308 305 302 300 300 298 297 296 295 293 292 292 293 295 293 287 285 287 289 280 265 259 259 258 257 254 247 240 235 234 235 236 235 233 231
320 318 316 315 315 313 311 308 305 303 302 301 299 297 296 295 295 295 292 293 296 295 288 285 290 294 289 280 274 270 266 261 255 252 245 237 233 234 235 236 236 233
321 319 317 315 314 313 312 310 308 305 304 303 301 298 299 303 306 306 305 304 305 304 296 290 295 302 303 300 297 288 276 265 257 254 251 245 241 239 237 237 236 233
322 319 317 315 314 314 311 310 309 307 307 311 310 304 305 312 314 314 314 314 313 313 308 299 297 303 306 300 294 287 278 269 260 254 250 247 246 244 242 239 237 234
321 320 318 315 315 315 315 312 312 314 316 319 318 313 314 318 319 317 315 319 328 332 328 316 305 305 306 303 298 293 287 280 267 255 249 246 246 245 244 241 237 235
322 322 321 319 317 316 317 317 318 320 322 322 322 321 321 322 322 321 318 320 336 346 342 337 328 320 318 322 328 321 311 308 294 269 256 251 248 246 243 240 237 235
Height
768 767 765 763 760 758 756 753 750 748 745 744 742 740 738 736 735 733 731 729 728 727 726 726 725 725 724 724 724 724 724 724 724 724 725 726 726 727 728 729 730 731
766 764 762 760 757 755 753 750 747 744 742 741 739 737 734 732 730 729 727 725 724 723 722 721 721 720 720 720 720 720 720 720 720 721 721 722 723 723 724 725 726 727
762 761 758 756 753 751 749 746 743 741 739 738 736 733 731 728 726 724 722 721 720 718 717 717 716 716 716 716 717 717 717 716 716 717 717 718 719 720 721 722 723 723
759 757 755 752 750 747 745 742 740 738 736 734 732 730 727 724 722 720 718 716 715 714 713 712 711 712 712 712 713 713 713 713 713 713 714 714 715 716 718 719 720 720
755 753 751 748 745 743 740 738 736 734 733 730 728 725 723 721 718 715 713 712 711 710 709 708 708 708 708 709 709 709 709 709 710 710 711 711 711 713 714 715 716 717
751 749 746 744 742 739 736 734 733 731 729 726 724 722 720 718 715 712 710 708 707 706 705 704 704 704 704 705 706 706 706 706 707 707 707 707 708 709 711 712 713 713
748 745 743 741 739 736 733 731 730 728 726 723 721 719 717 714 712 709 707 705 703 702 701 701 700 700 700 701 702 702 702 703 704 704 704 704 705 706 707 709 709 710
745 742 740 738 735 733 731 729 727 726 724 721 718 716 714 712 709 707 705 702 700 698 698 697 697 696 697 697 698 698 699 700 701 701 701 701 702 703 704 705 706 707
742 739 737 735 732 730 728 727 725 723 721 718 716 714 711 709 707 705 702 700 697 696 695 694 694 693 694 694 695 695 696 697 697 698 698 699 699 700 700 702 703 703
740 737 735 733 731 729 726 724 722 720 718 715 712 710 708 706 704 702 700 698 695 694 693 692 691 691 691 691 692 692 693 694 695 695 696 696 696 697 697 698 699 699
738 736 734 732 729 727 724 721 719 717 714 712 709 707 705 703 702 700 698 695 693 692 691 690 689 689 689 688 689 690 690 691 692 692 693 693 693 694 694 695 695 696
737 734 732 730 728 725 722 719 716 714 712 709 706 705 703 701 700 697 695 693 692 691 690 688 687 687 687 686 687 687 688 688 689 689 690 690 690 691 691 691 692 693
735 733 730 728 725 722 719 717 715 712 710 707 705 703 701 699 697 695 693 692 690 688 687 686 685 685 684 684 684 685 685 686 686 686 687 687 687 688 688 689 689 691
733 731 728 725 723 720 717 715 713 711 708 706 703 701 698 696 694 693 691 689 687 686 684 683 682 681 681 681 681 682 682 683 683 683 683 684 684 685 685 686 686 687
731 728 726 723 721 718 715 713 711 708 706 703 701 698 696 694 692 690 688 685 684 682 681 680 679 678 677 677 678 678 678 679 679 679 680 680 681 681 682 683 683 684
729 727 724 721 719 716 713 711 708 706 703 700 698 695 692 690 688 686 684 682 680 678 677 676 674 674 673 674 674 675 675 675 675 676 676 677 678 678 679 679 680 681
727 725 722 719 717 714 711 708 706 703 701 698 695 692 689 687 684 682 680 678 677 675 673 672 670 669 669 670 670 671 671 671 671 672 672 673 674 675 676 676 677 678
726 723 720 717 714 712 709 706 704 701 698 695 692 689 686 683 681 678 676 674 673 672 670 668 666 665 665 666 666 666 667 667 667 667 668 669 670 671 672 673 674 675
724 721 718 715 712 710 707 704 701 698 695 692 688 685 683 680 677 675 672 670 669 667 665 664 662 661 662 662 662 662 662 662 663 663 664 665 666 667 668 669 671 672
723 720 717 714 710 708 705 702 699 695 692 689 686 682 680 677 674 672 669 667 665 664 662 660 658 657 657 657 658 657 657 658 659 659 660 661 662 663 665 666 668 669
721 718 715 711 708 705 702 699 696 692 689 686 683 680 677 674 671 668 666 664 662 661 659 656 654 653 653 653 653 653 653 654 655 656 656 657 658 659 661 663 664 666
719 716 712 709 706 703 699 696 693 690 687 684 680 677 674 671 668 666 663 661 659 657 656 654 652 650 650 650 650 650 651 652 652 653 653 654 654 656 657 659 661 663
718 714 710 707 704 700 697 694 691 688 685 682 679 675 672 669 666 663 660 658 656 654 653 651 649 648 648 648 648 648 648 649 650 650 651 651 652 653 654 655 657 658
716 713 709 705 702 699 695 692 689 686 683 680 677 673 670 667 664 660 658 656 654 652 651 649 647 646 646 646 646 646 646 647 648 648 648 649 649 650 651 652 653 654
715 712 708 704 700 697 693 690 687 684 681 678 675 672 668 665 662 659 656 654 653 651 649 648 646 645 644 644 644 644 644 645 645 646 646 646 647 647 648 648 649 650
714 710 707 703 699 695 692 688 686 682 679 676 673 670 667 664 661 659 656 654 653 652 649 647 646 644 643 643 643 643 643 643 644 644 644 644 644 645 645 645 646 647